Tracking 29528 objects as of 14-Sep-2024
HD Live streaming from Space Station
objects crossing your sky now

FENGYUN 1C DEB

Track FENGYUN 1C DEB now!
10-day predictions


NORAD ID: 31092
Int'l Code: 1999-025BGN
Perigee: 849.9 km
Apogee: 1,349.4 km
Inclination: 99.7 °
Period: 107.1 minutes
Semi major axis: 7470 km
RCS: 0.0082 m2 (small)
Launch date: May 10, 1999
Source: People's Republic of China (PRC)
Launch site: Taiyaun Space Center, China (TSC)

Note: This is SATELLITE DEBRIS
Your satellite tracking list
Your tracking list is empty




NASA's NSSDC Master Catalog

Two Line Element Set (TLE):
1 31092U 99025BGN 24252.05823668  .00007997  00000-0  98400-2 0  9998
2 31092  99.6818  16.4637 0334246 193.6220 165.5719 13.44514528856853
Source of the keplerian elements: AFSPC